Time[GMT],current_u[cm/s](10m),current_v[cm/s](10m),current_u[cm/s](14m),current_v[cm/s](14m),current_u[cm/s](18m),current_v[cm/s](18m),current_u[cm/s](22m),current_v[cm/s](22m),current_u[cm/s](26m),current_v[cm/s](26m),current_u[cm/s](30m),current_v[cm/s](30m),current_u[cm/s](34m),current_v[cm/s](34m),current_u[cm/s](38m),current_v[cm/s](38m),current_u[cm/s](42m),current_v[cm/s](42m),current_u[cm/s](46m),current_v[cm/s](46m),current_u[cm/s](50m),current_v[cm/s](50m),current_u[cm/s](54m),current_v[cm/s](54m),current_u[cm/s](58m),current_v[cm/s](58m),current_u[cm/s](62m),current_v[cm/s](62m),current_u[cm/s](66m),current_v[cm/s](66m),current_u[cm/s](70m),current_v[cm/s](70m),current_u[cm/s](74m),current_v[cm/s](74m),current_u[cm/s](78m),current_v[cm/s](78m),current_u[cm/s](82m),current_v[cm/s](82m),current_u[cm/s](86m),current_v[cm/s](86m),current_u[cm/s](90m),current_v[cm/s](90m)
2005-05-21 00:00,1.67,12.19,-0.71,18.35,-0.88,12.95,2.14,18.95,4.50,20.12,6.13,18.96,7.16,13.10,7.91,9.77,8.01,10.74,8.76,12.03,7.42,14.23,3.42,15.26,-0.41,14.77,-1.73,10.68,2.77,6.45,5.07,2.88,6.87,0.20,7.50,-1.80,7.88,-1.68,6.51,-2.65,4.36,-3.12
2005-05-21 01:00,0.18,8.98,2.60,7.97,4.06,8.01,1.85,13.29,1.41,13.99,1.48,11.49,1.71,7.47,-0.19,2.25,0.91,-7.79,3.65,-6.50,5.31,-2.50,4.09,2.98,-1.20,2.45,-1.95,0.85,-1.58,-2.29,2.86,-6.33,4.26,-7.77,6.62,-9.22,4.96,-9.96,3.08,-8.99,0.80,-6.46
2005-05-21 02:00,-6.88,-4.09,-6.56,-8.39,-8.95,-5.17,-9.89,-1.90,-8.26,-0.12,-2.52,-1.96,-1.71,-4.85,-4.31,-7.88,-6.55,-12.69,-10.26,-20.49,-7.67,-25.64,-5.85,-21.81,-5.14,-15.81,-7.00,-15.25,-7.17,-16.35,-8.12,-16.66,-7.48,-16.03,-6.25,-16.27,-4.53,-15.72,-8.53,-14.06,-12.24,-12.62
2005-05-21 03:00,-3.33,-15.23,-1.35,-16.49,1.44,-11.09,0.68,-8.71,2.58,-8.10,3.65,-8.81,0.68,-11.01,-3.60,-14.37,-9.83,-16.89,-12.67,-23.46,-12.75,-29.79,-7.62,-27.10,-3.44,-21.46,-2.40,-17.14,-2.88,-17.29,-3.41,-16.62,-7.10,-16.23,-8.77,-15.92,-8.36,-15.58,-6.22,-14.37,-6.20,-12.48
2005-05-21 04:00,-9.85,-32.95,-12.44,-33.05,-8.26,-25.42,-2.96,-18.68,-0.93,-16.15,0.60,-12.72,-2.08,-14.52,-6.85,-16.36,-10.49,-16.78,-11.89,-21.95,-11.81,-27.81,-10.00,-29.85,-7.97,-27.00,-8.14,-25.48,-7.72,-22.83,-8.58,-23.10,-7.09,-25.15,-6.99,-24.80,-6.81,-23.06,-9.58,-21.64,-12.50,-20.36
2005-05-21 05:00,-5.73,-30.07,-9.01,-31.64,-12.09,-25.59,-13.72,-19.49,-10.99,-18.52,-9.15,-18.35,-8.66,-19.56,-8.76,-19.91,-8.93,-18.07,-9.98,-16.10,-9.35,-16.42,-5.64,-17.86,-2.57,-20.56,-3.72,-18.93,-5.90,-16.05,-6.69,-16.20,-4.70,-18.82,-3.17,-20.33,-1.69,-21.01,-0.39,-20.49,-0.59,-16.25
2005-05-21 06:00,-11.45,-29.58,-13.67,-27.88,-11.14,-25.60,-8.30,-21.02,-4.27,-14.59,-3.80,-15.07,-6.94,-18.70,-8.90,-20.47,-7.33,-16.83,-8.13,-12.67,-6.52,-10.48,-8.30,-8.53,-9.51,-9.02,-6.90,-9.97,-5.19,-12.68,-3.88,-16.77,-0.80,-15.90,-1.85,-13.92,-3.60,-9.44,-2.79,-8.03,-1.64,-6.72
2005-05-21 07:00,-10.26,-13.25,-18.04,-8.59,-17.17,-5.06,-14.66,-1.11,-9.96,0.29,-9.06,-3.52,-3.54,-5.01,-1.04,-4.32,-0.95,-4.92,-2.39,-4.02,-2.30,-1.68,-2.28,-0.10,-3.90,1.38,-3.41,-2.14,-1.01,-4.41,2.91,-7.15,5.18,-7.69,5.01,-6.17,6.54,-5.05,6.15,-3.81,7.34,-2.28
2005-05-21 08:00,-9.54,5.88,-7.35,9.20,-4.82,9.17,-3.08,11.61,-0.35,4.40,-0.11,-0.98,1.89,-3.28,6.47,-1.19,10.08,-5.60,4.66,-4.39,2.39,-3.54,2.06,0.13,3.73,5.08,1.40,8.11,0.12,7.18,2.01,3.58,7.86,1.04,10.02,-0.48,11.32,-2.26,11.68,-2.05,9.93,0.13
2005-05-21 09:00,5.85,9.63,8.27,11.25,3.69,3.91,12.70,6.57,10.79,5.65,10.88,5.05,10.83,5.87,7.78,7.21,6.89,9.34,9.00,13.89,12.37,17.49,13.87,21.01,10.87,21.52,7.41,20.21,8.54,17.32,9.64,14.20,10.74,11.09,12.08,9.84,13.62,11.59,14.64,17.27,15.00,18.12
2005-05-21 10:00,1.32,14.28,4.57,13.64,2.51,3.00,10.03,10.02,9.24,10.51,7.10,13.60,6.31,16.08,9.64,19.14,11.46,22.97,12.49,24.67,11.28,24.18,10.96,23.23,13.05,21.27,13.34,21.68,15.37,21.91,16.39,22.97,18.97,21.48,21.90,20.53,24.09,21.54,25.36,26.46,25.85,30.50
2005-05-21 11:00,2.17,26.41,4.76,25.56,5.90,8.49,11.46,18.04,12.21,14.71,11.63,14.52,10.64,15.99,11.48,17.31,14.17,17.43,16.12,16.90,18.26,18.42,19.35,19.61,20.18,20.30,18.33,18.87,17.84,17.13,21.22,17.06,25.45,16.62,28.17,16.65,28.46,17.06,27.59,16.15,27.02,15.66
2005-05-21 12:00,-4.64,20.14,-2.67,16.26,-2.46,5.09,-2.57,11.99,-5.39,8.67,-5.73,9.40,-4.48,8.12,-1.48,5.30,2.67,3.16,6.41,1.63,9.01,2.35,10.99,3.72,12.40,5.53,13.94,6.97,13.26,8.12,11.26,7.79,10.25,7.36,10.62,6.54,11.09,6.37,11.30,5.39,12.90,7.27
2005-05-21 13:00,1.83,12.03,-1.48,7.93,-3.28,5.67,4.09,7.92,7.37,9.80,5.28,9.45,3.15,9.19,3.29,7.14,4.22,6.18,5.49,4.17,6.75,3.20,11.55,3.27,15.70,3.75,18.39,3.88,19.85,4.24,21.02,1.88,18.72,-2.74,15.54,-3.65,14.50,-3.98,14.65,-2.15,12.86,-1.15
2005-05-21 14:00,2.96,8.82,2.97,6.82,1.04,-0.61,5.99,1.28,4.11,2.26,1.83,-0.47,0.94,-5.89,1.53,-9.06,2.38,-11.73,4.98,-13.95,4.83,-12.84,5.49,-13.26,5.73,-14.65,6.94,-15.84,8.11,-16.20,10.21,-17.52,12.08,-17.45,11.58,-17.19,8.75,-15.26,6.71,-14.44,3.16,-12.85
2005-05-21 15:00,0.95,-4.63,-1.05,-10.20,-4.81,-7.62,-2.44,-15.05,-2.00,-10.51,-2.86,-8.79,-5.01,-8.63,-5.26,-10.81,-3.81,-16.02,-4.10,-19.05,-6.30,-22.69,-4.61,-24.04,-1.71,-24.58,0.11,-25.68,-1.05,-25.32,-1.26,-24.65,-1.73,-24.17,-1.01,-24.15,-2.88,-22.54,-3.34,-18.49,-3.13,-14.86
2005-05-21 16:00,-1.34,-8.30,0.26,-4.75,-2.15,-2.47,-0.10,-14.83,-1.67,-16.49,-4.24,-15.32,-5.25,-14.80,-7.33,-14.20,-7.79,-15.40,-7.48,-18.34,-7.72,-22.51,-7.83,-26.12,-8.56,-28.76,-7.99,-31.21,-5.83,-33.04,-4.25,-33.06,-2.64,-30.86,-2.45,-28.49,-1.23,-27.06,-0.41,-24.38,-1.57,-21.07
2005-05-21 17:00,3.46,-13.80,1.08,-17.19,-4.93,-12.18,-2.77,-18.94,-3.08,-15.68,-5.22,-14.89,-6.56,-13.01,-7.55,-14.17,-8.33,-17.98,-8.07,-22.41,-8.06,-26.71,-7.27,-29.19,-9.01,-29.33,-9.35,-28.60,-7.76,-27.67,-4.19,-28.63,-1.26,-28.95,-1.22,-26.42,-2.84,-24.32,-2.87,-24.22,-2.68,-21.22
2005-05-21 18:00,-1.50,-15.70,-1.09,-13.68,-10.51,-8.50,-3.60,-16.68,-5.02,-13.88,-6.25,-13.65,-7.71,-14.64,-7.04,-16.10,-6.43,-15.70,-7.10,-16.23,-7.16,-20.34,-7.12,-25.05,-5.53,-29.37,-4.13,-30.81,-0.07,-30.36,2.70,-28.53,4.07,-27.57,2.35,-26.12,0.16,-24.51,-0.53,-21.37,1.24,-19.34
2005-05-21 19:00,-1.89,-14.14,-0.68,-13.65,-7.14,-9.21,4.55,-9.99,4.32,-6.29,4.14,-5.08,4.41,-6.26,5.82,-12.31,4.59,-14.70,2.66,-17.21,-0.25,-19.60,-4.70,-18.82,-8.89,-17.22,-11.39,-17.28,-11.39,-17.91,-8.17,-17.83,-3.47,-16.43,0.06,-14.68,0.61,-11.77,1.83,-7.71,3.91,-5.68
2005-05-21 20:00,6.50,-5.90,6.62,-8.91,-2.33,-9.14,9.84,-9.77,11.66,-10.55,13.40,-10.73,14.50,-5.97,14.00,-6.03,12.48,-8.19,8.79,-7.80,3.46,-3.62,-0.20,-0.69,-2.24,0.76,-1.59,-0.30,0.50,-2.57,3.56,-3.90,6.68,-4.48,10.09,-4.65,10.98,-4.16,11.25,-0.71,11.12,1.34
2005-05-21 21:00,6.44,1.85,7.62,2.12,-2.37,-4.43,10.68,2.05,12.32,1.52,11.19,2.42,11.09,1.44,9.04,-0.37,9.18,3.14,5.23,8.60,3.07,12.74,1.94,15.95,1.99,14.81,3.80,10.45,5.20,8.06,7.83,6.07,10.31,5.18,11.80,5.13,12.78,7.96,13.68,11.08,13.77,10.80
2005-05-21 22:00,3.09,11.38,5.14,11.51,1.46,4.98,10.72,10.14,15.71,11.94,21.38,14.59,19.41,14.49,17.27,14.96,14.30,15.38,13.44,17.10,12.99,19.47,10.91,22.06,11.22,23.73,13.21,21.43,14.08,17.72,14.75,15.94,16.18,16.40,19.29,17.18,22.06,18.69,23.56,19.91,20.67,18.46
2005-05-21 23:00,4.39,19.46,5.12,19.48,3.03,9.26,6.77,9.72,11.36,5.52,16.96,0.48,16.80,2.63,14.15,5.99,11.82,9.34,10.17,10.91,6.23,12.06,4.75,12.43,7.50,13.00,9.22,13.54,10.64,13.68,13.82,12.60,17.74,11.85,19.46,13.35,20.34,15.20,20.81,17.03,19.88,16.63
2005-05-22 00:00,-3.07,16.86,-0.72,17.72,-0.71,13.73,0.05,13.66,1.67,7.25,5.21,1.77,6.05,0.78,5.44,2.68,3.46,5.62,0.48,7.71,1.70,9.47,2.79,10.34,3.26,12.80,4.94,12.81,6.73,11.49,10.49,11.22,15.25,10.43,18.73,10.39,20.56,10.24,20.50,10.43,20.13,11.25
2005-05-22 01:00,-5.27,5.98,-4.37,6.79,0.95,7.23,2.68,11.35,5.10,10.34,3.50,4.48,2.52,-2.97,3.41,-5.42,4.15,-4.13,5.22,-2.53,7.00,-1.86,9.23,-0.62,11.49,0.52,13.87,1.59,15.36,1.86,17.06,1.14,17.65,-2.03,16.91,-3.00,16.34,-5.49,16.89,-6.89,15.17,-8.39
2005-05-22 02:00,-20.22,-3.41,-18.27,-4.26,-16.77,1.58,-8.26,1.88,3.81,6.15,5.27,1.58,2.61,-5.88,0.29,-7.15,-1.29,-4.19,2.19,-6.54,5.02,-5.22,6.23,-7.67,7.16,-8.63,8.42,-8.96,8.82,-10.52,5.20,-13.98,3.57,-14.81,10.33,-17.91,4.49,-15.05,3.24,-16.39,3.97,-18.36
2005-05-22 03:00,-29.49,-13.19,-28.76,-13.17,-26.24,-8.90,-17.22,-6.23,-4.21,-5.54,0.21,-8.54,-2.57,-13.00,-5.60,-14.70,-6.28,-16.49,-6.19,-19.40,-5.91,-19.31,-4.31,-17.75,-2.55,-16.67,-2.27,-16.89,-0.95,-17.10,-3.02,-21.12,-2.58,-21.50,-3.65,-23.10,-0.86,-20.32,-7.73,-25.45,-2.58,-21.50
2005-05-22 04:00,-40.61,-24.72,-39.45,-23.40,-35.57,-21.74,-32.56,-18.37,-23.21,-16.75,-13.54,-17.44,-12.14,-16.89,-16.96,-17.90,-19.08,-20.47,-15.03,-27.57,-12.36,-31.97,-11.04,-32.50,-8.94,-31.19,-7.84,-29.69,-6.43,-30.50,-5.65,-31.30,-7.09,-32.39,-6.29,-31.92,-6.14,-32.08,1.95,-25.83,-17.38,-25.80
2005-05-22 05:00,-33.73,-26.20,-32.96,-25.32,-30.95,-23.73,-30.55,-24.34,-26.85,-22.43,-22.49,-25.23,-15.11,-21.41,-9.02,-23.03,-6.70,-26.38,-6.77,-29.77,-5.67,-32.88,-4.07,-35.94,-0.08,-38.23,1.78,-38.80,2.62,-37.16,4.32,-35.57,6.00,-42.49,6.03,-35.34,6.96,-33.99,12.90,-37.14,18.43,-52.17
2005-05-22 06:00,-44.60,-20.74,-45.55,-17.79,-36.45,-16.36,-42.61,-18.43,-40.35,-17.29,-37.17,-18.37,-33.18,-17.41,-22.44,-21.12,-22.27,-20.02,-18.38,-24.97,-16.16,-26.99,-16.29,-29.55,-16.90,-30.59,-17.31,-32.92,-16.41,-34.10,-18.76,-40.21,-14.10,-36.73,-16.51,-37.07,-7.01,-28.37,-11.47,-43.65,-13.68,-3.52
2005-05-22 07:00,-33.94,-32.14,-32.87,-32.85,-26.85,-29.35,-29.94,-33.49,-26.76,-34.57,-25.31,-35.16,-22.87,-34.59,-17.89,-34.05,-13.94,-36.57,-8.77,-40.27,-7.97,-39.49,-2.04,-47.89,-4.59,-44.50,-1.27,-44.39,-2.80,-48.45,-8.34,-46.22,-4.30,-47.03,-3.72,-43.28,2.69,-44.28,-11.30,-55.04,-16.29,-54.85
2005-05-22 08:00,-35.52,-17.32,-33.27,-14.82,-30.01,-12.20,-38.39,-19.81,-38.35,-20.95,-32.84,-18.14,-33.34,-19.88,-31.11,-21.26,-27.84,-27.57,-27.16,-28.72,-23.29,-33.26,-15.36,-38.39,-14.81,-37.79,-14.98,-35.96,-15.05,-34.09,-12.01,-36.37,-9.72,-32.70,-10.67,-30.38,-7.77,-43.42,-23.84,-46.66,-25.01,-48.60
2005-05-22 09:00,-26.75,-6.65,-28.85,-8.26,-19.46,-3.17,-28.11,-9.29,-31.07,-8.55,-29.80,-8.25,-28.34,-9.88,-26.24,-9.21,-25.16,-11.60,-26.21,-14.56,-23.90,-16.55,-19.23,-17.37,-14.06,-16.45,-8.32,-15.04,-4.42,-16.42,-2.00,-20.37,-4.79,-20.53,-4.88,-20.24,-2.75,-9.48,0.27,-13.67,-4.53,-29.89
2005-05-22 10:00,-27.70,-9.89,-28.88,-12.47,-13.99,-8.14,-30.40,-15.26,-30.77,-14.44,-32.82,-16.56,-32.20,-17.83,-32.45,-19.70,-38.24,-22.91,-31.37,-22.08,-29.33,-25.52,-22.68,-27.60,-17.47,-27.83,-10.52,-28.87,-7.54,-30.33,-6.95,-36.12,-10.09,-34.82,-5.61,-32.76,-4.10,-33.53,-24.16,-41.72,-25.02,-32.76
2005-05-22 11:00,-25.69,1.88,-19.70,2.85,-12.19,8.92,-26.31,2.52,-24.00,2.52,-23.08,5.55,-21.53,5.30,-22.81,9.31,-20.36,10.19,-22.69,11.23,-23.81,10.14,-20.69,6.62,-19.83,5.22,-17.94,1.94,-15.10,-3.98,-12.99,-9.61,-11.71,-8.04,-12.77,-9.32,-11.83,-9.97,-10.41,-7.84,-14.45,7.78
2005-05-22 12:00,-21.23,-3.52,-20.50,-5.81,-5.86,-0.40,-20.46,-6.95,-22.96,-7.33,-23.34,-7.45,-22.96,-7.33,-23.66,-7.44,-21.40,-6.94,-19.79,-6.74,-21.37,-6.40,-23.99,-1.15,-18.69,-2.29,-15.96,-1.31,-12.62,-2.24,-9.23,-4.94,-5.89,-10.49,-3.67,-17.44,-1.70,-21.96,-2.27,-21.82,-1.38,-43.37
2005-05-22 13:00,-18.38,-15.42,-18.05,-14.47,-16.34,-9.31,-19.63,-14.14,-19.36,-12.37,-22.15,-13.16,-22.79,-11.16,-21.74,-10.82,-20.46,-9.57,-20.91,-10.45,-20.10,-11.35,-17.47,-10.72,-15.76,-10.80,-14.24,-10.32,-12.14,-9.33,-11.22,-11.87,-13.68,-20.95,-11.14,-24.97,-7.60,-32.45,-6.88,-28.12,-2.39,-38.24
2005-05-22 14:00,-23.11,-19.34,-21.12,-19.65,-21.14,-13.36,-21.93,-16.13,-24.93,-18.24,-28.22,-20.13,-26.89,-20.65,-24.73,-19.86,-24.07,-19.96,-25.36,-19.54,-24.43,-18.50,-24.28,-16.99,-25.75,-15.04,-24.35,-12.18,-22.28,-11.10,-21.37,-11.33,-21.57,-12.34,-27.56,-13.62,-23.68,-14.59,-22.03,-16.48,-12.79,-21.09
2005-05-22 15:00,-30.47,-37.75,-28.66,-37.17,-13.29,-25.45,-28.08,-38.98,-30.50,-40.60,-34.88,-37.06,-35.52,-37.68,-35.59,-38.13,-33.50,-32.84,-29.51,-32.51,-32.06,-31.44,-33.68,-31.95,-33.37,-29.65,-31.65,-26.48,-30.06,-25.55,-29.58,-25.40,-26.19,-24.84,-31.46,-26.73,-33.64,-31.10,-35.14,-27.38,-23.75,-24.58
2005-05-22 16:00,-36.03,-40.05,-38.72,-43.11,-26.83,-30.71,-31.39,-35.84,-35.60,-40.75,-37.31,-41.30,-36.95,-40.13,-37.48,-39.46,-36.65,-39.09,-36.54,-40.42,-35.93,-40.02,-34.48,-39.97,-33.54,-38.31,-32.58,-37.06,-30.76,-35.85,-29.39,-33.21,-28.63,-30.66,-23.72,-29.61,-19.92,-29.03,-20.97,-27.69,-7.72,-12.96
2005-05-22 17:00,-35.74,-44.26,-43.51,-54.09,-18.30,-31.14,-34.78,-36.40,-38.03,-45.31,-39.62,-48.54,-38.26,-46.54,-36.13,-45.65,-32.34,-41.08,-32.43,-40.79,-30.62,-40.21,-27.93,-40.09,-26.01,-40.21,-25.17,-41.52,-25.26,-41.55,-25.76,-40.97,-27.31,-40.41,-28.86,-40.81,-28.91,-39.98,-25.59,-34.62,-14.20,-24.90
2005-05-22 18:00,-22.79,-43.07,-31.70,-57.25,-14.68,-25.36,-19.87,-40.35,-24.63,-51.11,-29.41,-51.58,-30.37,-49.89,-30.85,-48.37,-29.07,-40.14,-32.42,-42.47,-33.35,-45.81,-32.05,-45.29,-30.20,-44.49,-29.75,-43.93,-29.25,-43.87,-29.40,-43.71,-28.26,-43.03,-26.40,-43.59,-24.25,-41.43,-19.93,-39.85,-7.05,-26.92
2005-05-22 19:00,-26.46,-46.02,-29.88,-53.41,-13.73,-27.37,-22.69,-43.35,-27.64,-48.92,-32.40,-50.75,-32.13,-48.99,-31.52,-48.27,-29.78,-43.51,-31.09,-42.04,-33.94,-42.64,-34.50,-41.87,-34.59,-40.95,-32.72,-41.20,-29.52,-43.33,-26.36,-45.99,-23.29,-48.06,-21.23,-47.29,-19.72,-45.76,-15.60,-42.56,-7.93,-23.84
2005-05-22 20:00,-22.94,-35.03,-26.99,-40.42,-14.91,-18.09,-29.78,-40.89,-32.72,-40.57,-33.94,-40.01,-34.58,-37.70,-35.18,-35.16,-34.44,-32.20,-34.25,-29.19,-35.19,-29.18,-34.51,-28.02,-35.29,-24.59,-35.49,-22.66,-32.37,-20.93,-28.71,-21.86,-22.12,-20.49,-17.26,-21.57,-14.35,-21.80,-11.99,-25.24,-11.77,-22.65
2005-05-22 21:00,-17.23,-31.53,-22.79,-38.45,-15.20,-18.81,-21.66,-37.04,-23.68,-36.32,-25.62,-35.15,-27.80,-34.91,-29.39,-32.58,-29.83,-30.52,-28.39,-28.48,-26.82,-27.45,-24.62,-26.12,-23.71,-21.74,-22.49,-15.37,-20.52,-14.32,-18.24,-16.53,-15.59,-19.25,-12.97,-19.88,-16.04,-20.13,-4.95,-18.69,-0.10,-15.46
2005-05-22 22:00,-19.70,-9.96,-22.87,-12.55,-23.41,-10.20,-24.03,-14.49,-24.61,-14.99,-24.92,-14.67,-24.25,-14.46,-23.67,-15.64,-21.53,-14.11,-21.48,-12.63,-19.16,-11.68,-16.91,-8.86,-15.12,-5.25,-15.03,-2.91,-14.08,-2.92,-13.68,-4.16,-12.23,-4.11,-10.56,-4.42,-9.39,-4.47,-6.27,-5.36,-5.36,-0.97
2005-05-22 23:00,-27.93,-12.48,-30.14,-12.14,-22.65,-15.52,-28.14,-9.19,-27.78,-8.02,-27.53,-6.16,-27.37,-5.69,-25.59,-5.02,-23.23,-3.84,-21.56,-4.47,-19.31,-3.96,-15.99,-3.84,-12.66,-3.10,-9.93,-2.12,-7.23,0.95,-6.40,3.94,-6.78,4.13,-6.03,3.43,-5.46,3.30,-3.46,3.62,-1.22,0.87
2005-05-23 00:00,-15.03,-10.15,-18.04,-10.90,-9.13,-8.90,-10.57,-10.62,-11.24,-10.83,-8.73,-9.82,-6.37,-6.34,-4.54,-3.55,-4.11,-2.26,-3.48,-0.27,-4.37,-0.77,-4.99,0.19,-5.65,0.61,-5.81,0.45,-5.13,-0.38,-4.82,-1.01,-4.85,-0.92,-4.63,-0.64,-4.97,-0.54,-5.54,-0.40,-3.91,-1.25
2005-05-23 01:00,-30.85,-3.97,-25.46,-5.40,-21.89,-5.10,-20.24,-4.99,-19.29,-6.99,-19.47,-9.05,-19.39,-10.28,-18.14,-11.25,-16.37,-11.52,-16.04,-9.95,-17.16,-8.73,-16.86,-7.37,-17.24,-5.50,-17.61,-4.36,-18.35,-3.02,-19.50,-1.71,-20.76,-1.06,-21.36,-1.15,-22.28,-0.92,-20.70,-0.94,-18.09,0.11
2005-05-23 02:00,-28.39,-19.24,-24.80,-17.68,-20.43,-17.54,-18.79,-17.44,-18.75,-16.58,-19.11,-15.76,-19.13,-17.02,-19.50,-18.50,-18.97,-19.17,-18.53,-19.24,-19.24,-18.32,-21.29,-17.82,-22.95,-16.56,-24.88,-14.45,-26.68,-11.45,-27.25,-9.01,-25.83,-8.87,-24.71,-8.10,-24.46,-8.54,-24.75,-8.63,-23.61,-8.90
2005-05-23 03:00,-23.82,-44.76,-22.59,-42.37,-22.41,-40.64,-22.36,-42.09,-22.38,-41.36,-21.77,-40.01,-21.40,-38.85,-20.03,-37.57,-18.62,-36.70,-17.81,-34.97,-19.07,-32.01,-20.30,-29.47,-20.18,-24.91,-19.57,-21.89,-19.27,-20.53,-19.56,-18.31,-19.69,-16.57,-20.62,-14.66,-21.25,-14.34,-21.12,-14.40,-25.30,-9.54
2005-05-23 04:00,-39.92,-55.15,-38.27,-52.10,-35.28,-48.00,-37.14,-47.75,-35.42,-46.57,-33.90,-44.41,-31.95,-42.32,-31.05,-41.51,-28.73,-40.55,-28.29,-40.62,-27.39,-39.81,-25.45,-38.98,-24.44,-36.25,-23.89,-32.71,-24.53,-28.72,-24.28,-26.85,-24.30,-23.19,-22.55,-22.10,-21.29,-20.13,-19.85,-18.72,-14.84,-17.65
2005-05-23 05:00,-30.88,-55.52,-29.99,-54.71,-30.86,-51.63,-32.57,-53.54,-32.81,-52.77,-32.66,-50.94,-33.54,-47.86,-32.62,-45.79,-31.18,-44.07,-28.97,-41.79,-27.72,-40.44,-25.97,-39.67,-23.82,-37.20,-22.90,-35.13,-22.30,-32.10,-22.21,-30.08,-22.40,-28.14,-23.29,-28.01,-24.69,-26.56,-24.47,-24.29,-18.35,-20.45
2005-05-23 06:00,-25.23,-63.37,-25.49,-61.25,-24.83,-57.37,-26.12,-59.25,-27.80,-58.94,-29.72,-58.82,-32.01,-59.55,-33.56,-59.94,-34.22,-59.52,-35.23,-59.00,-37.36,-57.27,-40.61,-54.63,-42.43,-51.23,-42.29,-47.72,-40.18,-45.78,-37.03,-44.46,-34.15,-43.96,-31.70,-42.76,-28.32,-43.47,-26.83,-42.57,-15.87,-26.90
2005-05-23 07:00,-53.78,-57.79,-48.55,-57.06,-40.88,-51.15,-40.36,-54.76,-38.47,-52.80,-40.22,-51.25,-42.19,-49.36,-43.43,-47.45,-44.43,-44.31,-45.85,-41.51,-45.94,-38.91,-45.31,-36.61,-43.50,-35.40,-41.62,-34.38,-39.93,-33.74,-37.19,-31.81,-35.06,-30.92,-31.70,-30.27,-27.78,-30.70,-19.70,-31.69,-9.49,-19.93
2005-05-23 08:00,-42.09,-51.33,-38.37,-47.20,-32.07,-41.94,-32.17,-42.60,-30.51,-41.54,-29.70,-39.81,-29.94,-36.43,-33.00,-33.42,-35.71,-30.19,-38.42,-26.96,-38.89,-23.85,-37.66,-22.10,-36.10,-20.76,-33.93,-19.65,-31.27,-19.11,-28.71,-19.56,-24.61,-20.24,-20.76,-20.48,-16.53,-21.55,-9.51,-21.19,-6.98,-14.30
2005-05-23 09:00,-26.82,-41.94,-28.88,-42.07,-25.22,-37.75,-26.09,-39.61,-23.50,-36.89,-21.18,-33.63,-17.57,-33.11,-16.54,-29.74,-18.20,-23.23,-22.45,-17.14,-22.89,-11.50,-21.30,-8.58,-18.83,-8.11,-16.35,-9.63,-15.31,-10.24,-14.13,-9.65,-10.47,-9.64,-8.19,-9.54,-5.25,-9.86,-1.01,-9.98,6.78,-6.76
2005-05-23 10:00,-25.15,-22.51,-23.23,-21.27,-16.53,-16.61,-16.09,-17.00,-13.56,-16.40,-12.86,-13.97,-14.33,-10.35,-15.78,-7.45,-17.02,-2.60,-16.90,1.64,-15.03,4.02,-12.88,4.18,-11.75,3.60,-10.67,3.84,-9.05,4.67,-8.28,3.24,-7.02,2.27,-6.40,1.32,-6.44,0.78,-3.94,1.16,-3.49,-0.59
2005-05-23 11:00,-14.84,-20.27,-10.40,-19.06,-7.25,-17.74,-2.94,-16.79,-3.75,-15.89,-5.61,-13.02,-8.11,-8.15,-9.21,-3.04,-9.91,1.77,-8.65,3.75,-8.23,4.41,-8.13,5.07,-8.41,4.98,-8.67,4.48,-8.70,4.57,-8.61,4.60,-8.79,5.17,-8.32,5.01,-8.98,4.80,-7.91,5.03,-8.08,3.93
2005-05-23 12:00,-22.75,-5.69,-21.12,-7.16,-17.51,-9.26,-15.73,-8.27,-13.07,-7.74,-11.13,-4.60,-9.50,-0.83,-5.77,1.31,-1.31,1.79,3.00,2.43,5.26,3.25,5.74,4.04,5.24,4.30,4.24,5.45,3.77,7.92,2.21,9.84,2.02,11.77,2.02,14.40,2.22,17.71,2.97,19.63,2.99,18.27
2005-05-23 13:00,-36.27,-4.44,-31.89,-3.67,-32.82,-4.07,-29.49,-3.64,-29.20,-3.23,-28.88,-3.23,-27.39,-2.65,-25.34,-3.15,-23.32,-3.56,-20.52,-4.77,-17.72,-5.34,-14.99,-4.99,-12.92,-6.22,-10.75,-7.10,-9.26,-7.16,-6.90,-7.98,-9.39,-12.34,-3.43,-13.27,-5.51,-15.30,5.64,-16.04,-8.34,-14.31
2005-05-23 14:00,-37.99,-22.73,-35.58,-22.38,-27.11,-17.99,-30.49,-22.54,-28.08,-21.87,-26.02,-21.74,-22.55,-22.42,-19.49,-22.80,-18.02,-23.80,-16.44,-24.46,-14.44,-25.81,-12.65,-26.81,-9.90,-27.51,-7.19,-27.80,-4.74,-26.92,-3.92,-24.55,-4.38,-20.82,-5.89,-15.74,-6.05,-10.96,0.63,-5.26,-6.02,-5.81
2005-05-23 15:00,-33.71,-21.99,-30.40,-23.14,-27.93,-22.66,-28.23,-24.02,-29.33,-23.53,-27.23,-22.55,-23.76,-23.22,-20.39,-23.93,-18.35,-25.06,-15.44,-25.29,-13.00,-25.04,-9.08,-25.15,-6.22,-26.23,-3.33,-25.73,-3.18,-23.90,-4.56,-20.24,-7.00,-15.56,-9.23,-11.87,-5.41,-10.34,-11.39,-10.04,12.79,-9.15
2005-05-23 16:00,-48.80,-37.51,-44.55,-33.43,-36.87,-29.19,-41.81,-37.07,-40.81,-37.90,-40.64,-39.74,-39.20,-40.64,-35.57,-38.85,-33.70,-38.15,-34.25,-39.38,-32.53,-38.83,-30.72,-37.94,-28.54,-38.19,-26.16,-37.74,-26.18,-36.38,-19.83,-37.19,-20.24,-34.59,-14.87,-30.36,-17.58,-26.81,-11.70,-24.52,-11.17,-20.26
2005-05-23 17:00,-43.66,-50.36,-33.98,-47.79,-30.71,-37.30,-35.82,-45.65,-35.19,-46.29,-36.00,-47.39,-34.29,-52.09,-34.11,-48.36,-29.48,-49.72,-28.89,-50.58,-27.20,-51.61,-23.80,-48.11,-25.54,-52.87,-20.58,-53.91,-20.52,-48.85,-19.19,-48.43,-15.78,-51.85,-9.40,-52.12,-11.39,-37.33,-3.22,-33.99,10.18,-27.61
2005-05-23 18:00,-53.18,-60.32,-49.84,-59.26,-46.03,-50.48,-49.68,-56.79,-51.01,-56.27,-49.09,-57.34,-48.25,-58.33,-47.40,-58.69,-47.09,-59.01,-46.99,-58.66,-47.60,-59.38,-46.95,-57.81,-45.00,-56.66,-43.42,-56.37,-42.01,-55.50,-40.66,-53.49,-43.70,-51.53,-41.35,-48.36,-34.22,-44.72,-28.11,-41.51,-16.09,-29.17
2005-05-23 19:00,-49.81,-66.60,-48.36,-64.24,-43.56,-57.57,-47.69,-61.72,-49.72,-61.63,-50.22,-61.37,-51.26,-61.08,-50.71,-60.48,-51.09,-59.97,-51.18,-60.32,-50.48,-59.57,-49.24,-58.86,-48.88,-58.01,-48.72,-57.85,-47.83,-57.99,-46.06,-57.63,-45.45,-57.23,-44.44,-57.43,-42.79,-56.69,-37.12,-46.49,-28.53,-36.92
2005-05-23 20:00,-83.00,-62.60,-80.69,-62.60,-66.93,-52.43,-76.90,-58.34,-74.97,-58.15,-73.06,-56.91,-70.49,-56.08,-61.82,-48.38,-60.32,-50.11,-61.16,-51.75,-53.11,-50.33,-56.76,-48.45,-54.30,-46.93,-52.73,-44.96,-49.19,-42.89,-44.02,-39.35,-47.24,-38.80,-39.02,-38.90,-43.35,-33.57,-30.04,-28.90,-27.71,-25.01
2005-05-23 21:00,-75.69,-52.60,-72.47,-50.84,-70.53,-42.14,-73.69,-49.66,-70.40,-47.14,-67.95,-43.31,-64.55,-39.49,-58.35,-34.26,-58.08,-33.13,-60.02,-26.40,-59.55,-27.19,-54.01,-26.79,-51.72,-25.43,-49.08,-24.48,-46.29,-24.01,-42.95,-22.63,-36.40,-27.05,-39.48,-21.00,-33.73,-18.95,-23.22,-20.01,-14.02,-28.09
2005-05-23 22:00,-52.49,-34.18,-51.96,-34.22,-44.92,-27.98,-52.29,-35.48,-50.31,-33.79,-48.33,-29.80,-45.09,-26.46,-37.20,-20.27,-33.71,-19.68,-31.01,-18.61,-28.30,-17.22,-25.15,-15.58,-22.26,-14.14,-19.87,-13.38,-16.45,-10.60,-14.86,-9.36,-9.75,-10.25,-10.32,-10.43,-7.81,-10.05,-1.44,-13.90,4.35,-8.69
2005-05-23 23:00,-50.15,-21.78,-47.20,-20.84,-39.13,-18.16,-46.04,-18.89,-44.38,-18.15,-40.53,-16.40,-37.32,-15.27,-32.82,-14.25,-28.67,-13.77,-26.26,-13.42,-22.79,-11.47,-19.31,-8.89,-15.69,-7.42,-13.58,-5.80,-12.69,-3.32,-12.10,-1.24,-11.79,0.75,-11.16,2.42,-11.03,2.67,-6.88,3.79,-15.93,7.83
2005-05-24 00:00,-36.94,-12.52,-37.75,-13.62,-34.05,-11.39,-39.06,-12.47,-37.63,-12.01,-36.19,-10.92,-34.00,-10.22,-30.64,-9.25,-27.61,-7.55,-25.21,-5.21,-22.45,-4.65,-18.71,-4.19,-15.42,-3.66,-12.22,-3.16,-8.61,-2.96,-5.48,-0.59,-2.04,1.13,1.85,3.42,2.21,4.59,3.96,5.36,-4.17,7.80
2005-05-24 01:00,-49.91,-24.85,-49.10,-26.06,-38.17,-22.15,-49.29,-23.81,-47.98,-22.66,-44.98,-22.54,-41.67,-21.38,-37.71,-18.33,-32.30,-15.24,-28.93,-13.96,-25.37,-12.93,-22.32,-13.95,-18.42,-13.65,-16.65,-13.29,-14.86,-12.30,-16.02,-6.06,-14.12,1.16,-7.70,1.43,-7.70,-1.51,-3.13,-0.05,-6.44,-1.21
2005-05-24 02:00,-45.94,-29.04,-45.67,-29.58,-38.58,-24.49,-45.37,-28.86,-42.19,-27.32,-39.19,-25.21,-35.41,-24.21,-30.56,-22.66,-26.70,-22.59,-24.42,-22.49,-22.25,-21.06,-18.60,-19.69,-16.70,-19.71,-14.44,-18.57,-12.45,-18.88,-13.39,-22.85,-10.72,-22.32,-5.71,-15.99,-4.48,-18.54,-6.17,-22.75,-0.30,-11.22
2005-05-24 03:00,-29.73,-29.85,-29.52,-30.52,-20.71,-23.93,-28.63,-30.66,-28.19,-30.41,-26.95,-30.33,-25.49,-29.34,-23.89,-28.41,-20.87,-27.02,-18.54,-25.44,-16.78,-23.41,-15.27,-21.56,-13.76,-19.72,-11.35,-19.37,-7.99,-19.03,-5.86,-18.14,-3.93,-17.94,-1.40,-15.35,2.95,-11.87,9.27,-9.64,9.89,-5.98
2005-05-24 04:00,-36.53,-47.03,-37.10,-47.22,-31.11,-38.37,-36.29,-45.49,-37.37,-43.73,-36.64,-41.09,-34.28,-39.28,-28.13,-35.53,-26.59,-39.03,-24.48,-39.72,-24.45,-37.19,-18.23,-40.25,-15.32,-40.16,-11.58,-40.02,-7.77,-38.80,-5.36,-35.51,-2.76,-30.48,-3.14,-25.04,-5.10,-20.21,-1.35,-11.87,-5.25,-5.25
2005-05-24 05:00,-49.72,-79.06,-48.40,-74.65,-43.73,-65.60,-45.82,-68.58,-44.64,-65.68,-44.13,-63.00,-44.15,-59.33,-42.32,-56.86,-41.10,-53.43,-38.14,-51.85,-33.73,-50.55,-29.35,-49.78,-25.60,-48.37,-21.53,-46.66,-16.94,-43.30,-13.03,-39.43,-11.83,-34.64,-8.84,-25.91,-10.05,-24.41,-5.15,-12.14,-17.57,-6.13
2005-05-24 06:00,-48.56,-67.56,-47.23,-67.45,-41.45,-63.19,-42.71,-62.54,-42.65,-60.43,-42.44,-59.10,-42.52,-57.55,-42.15,-56.38,-39.77,-55.94,-38.78,-55.10,-36.29,-55.35,-35.18,-54.89,-32.98,-54.19,-30.21,-52.68,-27.15,-50.13,-24.16,-46.65,-22.32,-41.55,-27.41,-34.15,-21.90,-26.09,-26.55,-11.52,-24.55,-3.01